     2              OBSERVATION DATA    GPS                 RINEX VERSION / TYPE
teqc 1998Mar9 19980311 23:37:39UTC                          PGM / RUN BY / DATE
                                                            COMMENT
Original Marker Name: unknown                               COMMENT
Campaign Name: Cholame 1989                                 COMMENT
4-Character Station Name: P807                              COMMENT
6-Character Antenna Code: TI4100                            COMMENT
Vertical Measurement Point: PAE                             COMMENT
Vertical Offset to Rinex Ref. Point: 0.0000                 COMMENT
Radial Measurement Point: PAE                               COMMENT
Radial Offset to Rinex Ref. Point: 0.0842                   COMMENT
Antenna Height from Field Measurement: 1.2330 m             COMMENT
Original XYZ: 0.0000 0.0000 0.0000                          COMMENT
New XYZ position is based on association with SCEC monument COMMENT
E1F1F2B2+0011. Position of that monument is believed to be  COMMENT
valid to within 1 m horizontally; vertical accuracy         COMMENT
should be no worse than 3-times this value.                 COMMENT
                                                            COMMENT
Revised Rinex header created by UCSD GPS archive for        COMMENT
GSAC on 14-Apr-1999 (1999:104) 22:35:07 GMT                 COMMENT
For assistance contact dagnew@ucsd.edu or hjohnson@ucsd.edu COMMENT
                                                            COMMENT
P807                                                        MARKER NAME
unknown UCLA                                                OBSERVER / AGENCY
UN06 TI 4100 2.1                                            REC # / TYPE / VERS
UN06 TI 4100                                                ANT # / TYPE
 -2584426.0000 -4502907.0000  3692603.0000                  APPROX POSITION XYZ
        1.2301        0.0000        0.0000                  ANTENNA: DELTA H/E/N
     1     1     0                                          WAVELENGTH FACT L1/2
     4    P1    P2    L1    L2                              # / TYPES OF OBSERV
     0                                                      INTERVAL
  1989    11    21     9    46   59.000000                  TIME OF FIRST OBS
  1989    11    21    16    24   59.000000                  TIME OF LAST OBS
     0                                                      # OF SATELLITES
                                                            END OF HEADER
 89 11 21  9 46 58.8600000  0  4G 2G 6G11G 9
  20072583.597    20072584.761      450588.243 9    -78357.064 8
  18621341.545    18621343.608     4011060.602 9  -8152440.462 8
  20244991.667    20244996.875     2288532.957 9
                                  -9658241.988 9    714257.732 1
 89 11 21  9 47 28.8600000  0  4G 2G 6G11G 9
  20087476.211    20087478.171      528852.393 9    -17372.025 9
  18611160.534    18611163.678     3957562.669 9  -8194127.182 8
  20224848.018    20224851.530     2182673.102 9  -9740730.165 9
                                    718801.580 1    228000.000 1
 89 11 21  9 47 58.8600000  0  4G 2G 6G11G 9
  20102381.525    20102383.388      607178.563 8     43661.332 9
  18601005.656    18601007.286     3904195.358 9  -8235712.125 9
  20204744.486    20204748.949     2077035.133 9  -9823045.477 9
                                    719208.551 1    456000.000 1
 89 11 21  9 48 28.8600000  0  3G 2G 6G11
  20117298.390    20117300.243      685565.726 8    104742.187 9
  18590875.610    18590878.291     3850960.183 8  -8277194.097 8
  20184684.830    20184690.136     1971621.283 9  -9905186.127 8
 89 11 21  9 48 59.0800000  0  3G 2G 6G11
  20132334.908    20132337.973      764588.528 9    166318.380 9
  18580696.943    18580699.245     3797469.382 9  -8318875.246 8
  20164522.217    20164525.858     1865664.051 9  -9987750.206 7
 89 11 21  9 49 29.0800000  0  4G 2G 6G11G 9
  20147275.204    20147277.850      843095.453 8    227492.579 8
  18570618.255    18570619.622     3744503.401 9  -8360147.431 8
  20144549.999    20144553.454     1760709.222 9 -10069533.214 8
  21292708.303    21292709.513     -836112.716 8   1070347.546 8
 89 11 21  9 49 59.0800000  0  4G 2G 6G11G 9
  20162224.728    20162227.564      921661.212 9    288712.613 9
  18560564.191    18560567.200     3691673.930 9  -8401313.268 8
  20124622.256    20124626.536     1655987.741 9 -10151134.328 7
  21276247.809    21276247.995     -922614.820 9   1002943.298 7
 89 11 21  9 50 29.0800000  0  4G 2G 6G11G 9
  20177185.889    20177188.458     1000283.999 8    349977.082 9
  18550537.316    18550539.329     3638982.433 9  -8442371.581 8
  20104739.232    20104743.170     1551502.236 8 -10232551.593 7
  21259779.040    21259782.187    -1009150.419 8    935512.950 7
 89 11 21  9 50 59.0800000  0  4G 2G 6G11G 9
  20192158.255    20192160.695     1078962.977 8    411285.323 9
  18540536.896    18540538.957     3586430.153 9  -8483321.411 8
  20084900.856    20084905.915     1447255.336 8 -10313782.929 8
  21243307.626    21243309.368    -1095719.010 8    868056.873 6
 89 11 21  9 51 29.0800000  0  4G 2G 6G11G 9
  20207140.585    20207143.349     1157697.724 9    472637.049 9
  18530562.935    18530566.286     3534018.611 9  -8524161.565 8
  20065109.880    20065114.976     1343250.205 9 -10394825.847 8
  21226827.367    21226830.472    -1182319.864 8    800575.665 6
 89 11 21  9 51 59.0800000  0  4G 2G 6G11G 9
  20222132.686    20222137.542     1236487.294 8    534031.477 9
  18520616.731    18520619.092     3481749.589 9  -8564890.674 8
  20045366.094    20045370.065     1239490.056 9 -10475677.901 9
  21210341.711    21210343.618    -1268951.937 8    733070.149 7
 89 11 21  9 52 29.0800000  0  4G 2G 6G11G 9
  20237137.103    20237140.470     1315330.443 8    595467.688 8
  18510697.382    18510699.851     3429624.634 9  -8605507.511 8
  20025668.247    20025672.478     1135977.566 9 -10556336.942 8
  21193849.600    21193851.517    -1355614.394 8    665540.963 7
 89 11 21  9 52 59.0800000  0  4G 2G 6G11G 9
  20252151.015    20252154.291     1394226.493 9    656945.078 9
  18500805.764    18500808.964     3377645.026 9  -8646011.103 8
  20006018.207    20006022.449     1032715.343 9 -10636801.007 9
  21177353.768    21177354.340    -1442306.833 8    597988.417 7
 89 11 21  9 53 29.0800000  0  4G 2G 6G11G 9
  20267175.162    20267177.111     1473174.880 9    718463.265 8
  18490942.433    18490945.565     3325812.362 9  -8686400.190 8
  19986415.456    19986419.804      929706.676 9 -10717067.486 8
  21160850.537    21160852.386    -1529028.433 7    530413.142 6
 89 11 21  9 53 59.0800000  0  4G 2G 6G11G 9
  20282207.032    20282209.831     1552174.416 9    780021.316 9
  18481107.715    18481109.692     3274128.306 9  -8726673.472 8
  19966862.420    19966866.190      826954.266 9 -10797134.255 9
  21144341.459    21144344.426    -1615778.324 7    462815.837 7
 89 11 21  9 54 29.0800000  0  4G 2G 6G11G 9
  20297251.177    20297253.565     1631224.511 9    841618.751 8
  18471301.171    18471302.960     3222594.371 9  -8766829.779 8
  19947359.063    19947363.594      724460.715 9 -10876999.350 8
  21127828.840    21127833.834    -1702555.772 7    395197.090 7
 89 11 21  9 54 59.0800000  0  4G 2G 6G11G 9
  20312302.584    20312305.680     1710323.609 9    903254.396 8
  18461522.933    18461525.443     3171211.709 8  -8806868.207 8
  19927904.474    19927908.892      622228.664 9 -10956660.680 8
  21111309.992    21111314.666    -1789360.338 8    327557.248 7
 89 11 21  9 55 29.0800000  0  4G 2G 6G11G 9
  20327364.094    20327366.573     1789471.303 9    964927.917 7
  18451773.690    18451775.676     3119982.184 9  -8846787.336 8
  19908501.406    19908504.862      520261.129 8 -11036115.862 9
  21094787.047    21094790.152    -1876190.984 7    259897.091 8
 89 11 21  9 55 59.0800000  0  4G 2G 6G11G 9
  20342434.311    20342436.885     1868666.746 9   1026638.629 9
  18442055.097    18442057.476     3068907.397 9  -8886585.874 8
  19889148.663    19889151.975      418561.041 9 -11115362.685 8
  21078259.371    21078261.360    -1963046.908 8    192217.145 7
 89 11 21  9 56 29.0800000  0  4G 2G 6G11G 9
  20357514.541    20357517.169     1947909.394 9   1088386.138 8
  18432365.589    18432367.318     3017989.233 9  -8926262.359 7
  19869846.704    19869850.577      317131.430 9 -11194398.711 9
  21061726.983    21061728.500    -2049927.049 8    124518.309 7
 89 11 21  9 56 59.0800000  0  4G 2G 6G11G 9
  20372603.118    20372605.601     2027199.323 9   1150170.475 9
  18422706.875    18422709.387     2967229.934 8  -8965815.074 8
  19850598.401    19850601.543      215975.927 9 -11273221.167 9
  21045189.669    21045192.546    -2136829.696 8     56801.948 7
 89 11 21  9 57 29.0800000  0  4G 2G 6G11G 9
  20387699.544    20387701.661     2106531.532 9   1211987.752 8
  18413077.644    18413079.528     2916627.307 9  -9005245.681 9
  19831399.747    19831404.093      115093.684 9 -11351830.708 9
  21028647.551    21028650.105    -2223758.101 8    -10934.520 7
 89 11 21  9 57 59.0800000  0  4G 2G 6G11G 9
  20402803.988    20402806.380     2185907.059 9   1273838.785 9
  18403478.195    18403480.833     2866184.706 9  -9044551.604 9
  19812255.201    19812259.928       14488.777 9 -11430224.126 8
  21012102.042    21012104.228    -2310709.490 9    -78688.861 8
 89 11 21  9 58 29.0800000  0  4G 2G 6G11G 9
  20417916.535    20417919.273     2265326.061 9   1335723.697 9
  18393911.283    18393913.246     2815904.620 9  -9083730.875 8
  19793164.790    19793168.727      -85834.887 9 -11508398.395 9
  20995551.544    20995553.575    -2397682.231 9   -146459.832 8
 89 11 21  9 58 59.0800000  0  4G 2G 6G11G 9
  20433038.241    20433041.603     2344793.343 9   1397646.204 9
  18384374.703    18384376.394     2765794.021 9  -9122778.082 9
  19774128.440    19774131.793     -185869.285 9 -11586347.246 9
  20978997.938    20979000.287    -2484669.906 9   -214242.446 8
 89 11 21  9 59 29.0800000  0  4G 2G 6G11G 9
  20448168.430    20448172.040     2424303.985 9   1459602.523 9
  18374870.805    18374873.249     2715850.727 9  -9161694.922 8
  19755147.269    19755151.877     -285615.208 9 -11664071.328 8
  20962442.221    20962444.737    -2571675.799 9   -282039.239 7
 89 11 21  9 59 59.0800000  0  4G 2G 6G11G 9
  20463307.161    20463310.277     2503856.359 8   1521591.342 8
  18365399.687    18365401.923     2666075.502 9  -9200480.830 8
  19736221.426    19736224.750     -385070.733 8 -11741569.116 9
  20945881.433    20945883.676    -2658699.477 9   -349849.881 8
 89 11 21 10  0 29.0800000  0  4G 2G 6G11G 9
  20478452.723    20478455.914     2583449.678 8   1583612.078 9
  18355959.027    18355962.987     2616469.901 9  -9239134.571 9
  19717352.294    19717355.088     -484233.510 9 -11818838.777 8
  20929317.883    20929321.579    -2745740.534 8   -417674.078 8
 89 11 21 10  0 59.0800000  0  4G 2G 6G11G 9
  20493606.486    20493610.609     2663082.812 8   1645663.828 8
  18346553.446    18346556.285     2567035.613 9  -9277654.797 7
  19698536.799    19698541.744     -583100.613 8 -11895878.083 8
  20912751.781    20912753.976    -2832797.631 9   -485510.763 7
 89 11 21 10  1 29.0800000  0  4G 2G 6G11G 9
  20508768.191    20508771.428     2742756.054 7   1707746.825 9
  18337178.378    18337180.661     2517774.423 9  -9316040.146 9
  19679780.912    19679785.201     -681669.214 9 -11972684.755 9
  20896182.255    20896185.148    -2919869.968 9   -553359.331 7
 89 11 21 10  1 59.0800000  0  4G 2G 6G11G 9
  20523937.455    20523940.746     2822467.778 8   1769859.807 8
  18327837.733    18327840.324     2468687.857 9  -9354289.412 8
  19661082.044    19661085.611     -779936.679 9 -12049256.790 9
  20879610.939    20879612.532    -3006956.799 9   -621219.198 7
 89 11 21 10  2 29.0800000  0  4G 2G 6G11G 9
  20539112.543    20539116.252     2902217.130 8   1832002.128 8
  18318530.526    18318533.137     2419777.513 9  -9392401.357 8
  19642439.571    19642443.559     -877900.663 9 -12125592.363 9
  20863035.583    20863038.034    -3094057.086 9   -689089.562 8
 89 11 21 10  2 59.0800000  0  4G 2G 6G11G 9
  20554295.780    20554297.552     2982003.024 8   1894172.913 9
  18309257.264    18309258.814     2371044.902 9  -9430374.827 8
  19623856.384    19623859.270     -975558.310 9 -12201689.204 8
  20846457.198    20846460.523    -3181170.210 9   -756969.917 8
 89 11 21 10  3 29.0800000  0  4G 2G 6G11G 9
  20569485.483    20569489.637     3061825.522 8   1956372.199 9
  18300017.978    18300019.222     2322492.014 9  -9468208.250 8
  19605330.223    19605334.123    -1072906.511 9 -12277544.945 9
  20829877.460    20829882.231    -3268294.798 7   -824859.163 8
 89 11 21 10  3 59.0800000  0  4G 2G 6G11G 9
  20584682.488    20584684.580     3141684.035 9   2018599.585 9
  18290812.880    18290814.945     2274120.721 9  -9505900.154 8
  19586865.544    19586868.928    -1169942.808 9 -12353157.608 9
  20813295.050    20813300.565    -3355429.655 7   -892756.408 7
 89 11 21 10  4 29.0800000  0  4G 2G 6G11G 9
  20599885.794    20599888.722     3221577.815 9   2080854.438 9
  18281642.934    18281645.137     2225932.614 9  -9543449.335 9
  19568459.931    19568464.088    -1266664.339 9 -12428525.022 8
  20796715.031    20796717.151    -3442574.137 7   -960661.144 8
 89 11 21 10  4 59.0800000  0  4G 2G 6G11G 9
  20615095.107    20615097.793     3301505.619 9   2143135.808 9
  18272507.481    18272510.764     2177929.429 9  -9580854.415 8
  19550114.339    19550118.748    -1363068.662 9 -12503645.238 9
  20780129.260    20780132.333    -3529727.140 8  -1028572.541 7
 89 11 21 10  5 29.0800000  0  4G 2G 6G11G 9
  20630311.061    20630314.152     3381466.745 9   2205443.117 9
  18263408.279    18263412.170     2130112.887 9  -9618114.044 8
  19531830.241    19531834.065    -1459152.592 9 -12578515.821 9
  20763543.826    20763545.113    -3616887.542 9  -1096489.732 7
 89 11 21 10  5 59.0800000  0  4G 2G 6G11G 9
  20645533.938    20645537.815     3461460.809 9   2267776.114 9
  18254345.013    18254347.672     2082484.750 9  -9655226.865 8
  19513607.185    19513612.342    -1554913.809 9 -12653134.925 8
  20746957.266    20746958.241    -3704054.345 8  -1164411.912 8
 89 11 21 10  6 29.0800000  0  4G 2G 6G11G 9
  20660762.328    20660765.969     3541487.300 9   2330134.382 9
  18245317.589    18245321.198     2035047.077 9  -9692191.281 8
  19495446.926    19495451.423    -1650349.384 9 -12727500.274 9
  20730368.664    20730370.496    -3791226.412 8  -1232338.162 8
 89 11 21 10  6 59.0800000  0  4G 2G 6G11G 9
  20675997.043    20675999.521     3621545.559 9   2392517.411 9
  18236328.329    18236330.619     1987801.489 9  -9729006.018 8
  19477348.561    19477353.560    -1745456.522 9 -12801609.712 9
  20713780.059    20713780.883    -3878402.601 8  -1300267.599 7
 89 11 21 10  7 29.0800000  0  4G 2G 6G11G 9
  20691237.225    20691240.544     3701634.888 9   2454924.648 9
  18227373.061    18227376.760     1940749.981 9  -9765669.503 9
  19459312.193    19459318.082    -1840232.623 8 -12875461.178 9
  20697190.788    20697192.895    -3965581.819 9  -1368199.448 7
 89 11 21 10  7 59.0800000  0  4G 2G 6G11G 9
  20706483.933    20706487.671     3781755.597 9   2517356.335 9
  18218457.351    18218459.826     1893894.394 9  -9802180.337 8
  19441341.904    19441344.815    -1934674.889 9 -12949052.533 9
  20680600.500    20680601.070    -4052762.644 9  -1436132.570 7
 89 11 21 10  8 29.0800000  0  4G 2G 6G11G 9
  20721735.814    20721739.109     3861905.857 9   2579811.041 9
  18209578.433    18209581.399     1847236.099 9  -9838537.454 9
  19423434.062    19423437.776    -2028780.953 9 -13022381.929 9
  20664009.535    20664011.417    -4139944.561 9  -1504066.554 8
 89 11 21 10  8 59.0800000  0  4G 2G 6G11G 9
  20736993.792    20736997.659     3942085.607 9   2642288.726 9
  18200738.009    18200741.278     1800777.253 9  -9874739.134 9
  19405591.125    19405593.849    -2122547.950 9 -13095447.114 8
  20647419.147    20647421.373    -4227126.089 9  -1572000.228 8
 89 11 21 10  9 29.0800000  0  4G 2G 6G11G 9
  20752257.487    20752259.669     4022293.871 9   2704788.654 8
  18191935.443    18191938.140     1754519.772 9  -9910783.894 8
  19387812.244    19387815.983    -2215973.015 9 -13168245.852 8
  20630829.322    20630831.601    -4314305.941 9  -1639932.600 8
 89 11 21 10  9 59.0800000  0  4G 2G 6G11G 9
  20767525.674    20767527.648     4102529.826 9   2767310.154 8
  18183171.847    18183174.608     1708465.220 9  -9946670.560 8
  19370099.493    19370103.521    -2309054.129 9 -13240776.577 9
  20614240.301    20614242.362    -4401483.242 9  -1707862.949 8
 89 11 21 10 10 29.0800000  0  4G 2G 6G11G 9
  20782798.951    20782801.492     4182793.438 9   2829853.206 8
  18174446.535    18174449.053     1662615.431 9  -9982397.661 8
  19352452.170    19352456.974    -2401788.400 9 -13313037.029 8
  20597651.100    20597654.447    -4488656.978 9  -1775790.520 7
 89 11 21 10 10 59.0800000  0  4G 2G 6G11G 9
  20798077.697    20798079.700     4263083.770 8   2892417.042 8
  18165760.955    18165763.485     1616972.302 9 -10017963.749 8
  19334872.135    19334875.287    -2494173.232 9 -13385025.184 9
  20581064.565    20581066.274    -4575825.677 9  -1843714.173 8
 89 11 21 10 11 29.0800000  0  4G 2G 6G11G 9
  20813361.382    20813366.180     4343400.471 9   2955001.455 8
  18157115.706    18157117.333     1571537.800 9 -10053367.246 9
  19317359.178    19317363.657    -2586205.870 9 -13456738.917 8
  20564476.676    20564479.422    -4662988.187 9  -1911632.992 8
 89 11 21 10 11 59.0800000  0  4G 2G 6G11G 9
  20828650.444    20828652.700     4423742.853 9   3017605.894 8
  18148508.982    18148512.267     1526313.725 9 -10088606.768 8
  19299913.927    19299918.079    -2677883.820 9 -13528176.251 8
  20547892.435    20547894.024    -4750143.414 9  -1979546.164 8
 89 11 21 10 12 29.0800000  0  4G 2G 6G11G 9
  20843942.895    20843947.222     4504110.417 8   3080229.917 8
  18139943.415    18139946.203     1481302.005 9 -10123680.829 8
  19282534.728    19282538.612    -2769204.456 8 -13599335.166 8
  20531310.202    20531311.516    -4837290.084 9  -2047452.689 8
 89 11 21 10 12 59.0800000  0  4G 2G 6G11G 9
  20859241.055    20859244.315     4584502.533 8   3142873.068 8
  18131419.401    18131421.640     1436504.403 8 -10158588.041 9
  19265226.536    19265230.520    -2860165.365 9 -13670213.781 8
  20514726.784    20514729.602    -4924426.882 9  -2115351.505 8
 89 11 21 10 13 29.0800000  0  4G 2G 6G11G 9
  20874543.874    20874546.935     4664918.572 9   3205534.880 8
  18122935.983    18122937.901     1391922.689 9 -10193327.055 8
  19247985.377    19247990.236    -2950763.794 9 -13740809.926 9
  20498149.048    20498150.796    -5011552.840 9  -2183241.877 9
 89 11 21 10 13 59.0800000  0  4G 2G 6G11G 9
  20889851.708    20889854.655     4745357.780 8   3268214.734 9
  18114493.286    18114496.170     1347558.926 9 -10227896.216 8
  19230815.931    19230818.554    -3040997.406 9 -13811121.820 8
  20481570.297    20481572.807    -5098666.529 9  -2251122.676 8
 89 11 21 10 14 29.0800000  0  4G 2G 6G11G 9
  20905162.595    20905165.917     4825819.795 8   3330912.351 8
  18106094.221    18106095.010     1303414.740 9 -10262294.280 8
  19213713.826    19213717.779    -3130863.691 8 -13881147.476 8
  20464995.362    20464998.387    -5185767.046 8  -2318993.181 9
 89 11 21 10 14 59.0800000  0  4G 2G 6G11G 9
  20920478.672    20920482.266     4906304.363 9   3393627.554 9
  18097735.186    18097736.041     1259492.326 9 -10296519.541 8
  19196683.271    19196687.349    -3220359.795 9 -13950884.690 8
  20448424.669    20448426.125    -5272852.536 8  -2386851.959 9
 89 11 21 10 15 29.0800000  0  4G 2G 6G11G 9
  20935798.254    20935802.183     4986810.498 9   3456359.560 8
  18089419.419    18089421.172     1215793.444 9 -10330570.614 8
  19179723.714    19179727.840    -3309483.526 9 -14020331.739 8
  20431855.306    20431856.833    -5359921.972 9  -2454698.215 8
 89 11 21 10 15 59.0800000  0  4G 2G 6G11G 9
  20951122.170    20951125.698     5067338.030 9   3519108.260 8
  18081147.955    18081148.712     1172320.071 9 -10364445.971 7
  19162835.681    19162838.992    -3398232.355 9 -14089486.651 9
  20415290.554    20415291.725    -5446974.081 9  -2522530.996 8
 89 11 21 10 16 29.0800000  0  4G 2G 6G11G 9
  20966450.499    20966453.441     5147886.353 9   3581873.150 8
  18072916.973    18072919.566     1129074.231 9 -10398144.027 8
  19146018.306    19146023.159    -3486603.602 9 -14158347.349 8
  20398728.695    20398729.379    -5534007.467 9  -2590349.202 7
 89 11 21 10 16 59.0800000  0  4G 2G 6G11G 9
  20981781.817    20981785.542     5228455.303 9   3644654.117 9
  18064731.392    18064734.201     1086057.689 9 -10431663.418 8
  19129274.766    19129277.591    -3574594.933 9 -14226912.008 8
  20382169.837    20382171.274    -5621020.786 9  -2658151.754 7
 89 11 21 10 17 29.0800000  0  4G 2G 6G11G 9
  20997118.336    20997121.296     5309043.880 9   3707450.366 9
  18056589.906    18056591.280     1043272.618 9 -10465002.414 8
  19112603.915    19112607.256    -3662203.697 9 -14295178.566 9
  20365615.865    20365618.063    -5708012.864 9  -2725937.749 8
 89 11 21 10 17 59.0800000  0  4G 2G 6G11G 9
  21012457.139    21012460.414     5389651.709 9   3770261.617 9
  18048492.651    18048494.624     1000720.688 9 -10498159.757 8
  19096005.559    19096008.901    -3749427.641 9 -14363145.257 7
  20349066.319    20349069.260    -5794982.295 8  -2793706.092 9
 89 11 21 10 18 29.0800000  0  4G 2G 6G11G 9
  21027800.295    21027803.164     5470278.358 9   3833087.533 9
  18040440.037    18040441.196      958403.858 9 -10531133.920 8
  19079481.184    19079484.376    -3836264.238 8 -14430810.123 8
  20332521.403    20332524.041    -5881927.695 9  -2861455.756 8
 89 11 21 10 18 59.0800000  0  4G 2G 6G11G 9
  21043146.308    21043149.412     5550923.424 9   3895927.822 9
  18032433.493    18032434.362      916324.183 9 -10563923.271 8
  19063029.844    19063034.532    -3922711.141 9 -14498171.343 8
  20315980.543    20315981.861    -5968847.531 9  -2929185.501 8
 89 11 21 10 19 29.0800000  0  4G 2G 6G11G 9
  21058495.981    21058498.713     5631585.721 9   3958781.527 9
  18024470.769    18024471.738      874483.365 9 -10596526.499 8
  19046655.143    19046659.343    -4008765.975 9 -14565227.038 8
  20299445.202    20299447.197    -6055740.926 9  -2996894.641 7
 89 11 21 10 19 59.0800000  0  4G 2G 6G11G 9
  21073848.543    21073851.742     5712265.305 9   4021648.704 9
  18016554.275    18016556.325      832883.468 9 -10628942.015 8
  19030353.993    19030358.824    -4094426.378 9 -14631975.392 9
  20282915.543    20282917.294    -6142606.213 9  -3064581.857 8
 89 11 21 10 20 29.0800000  0  4G 2G 6G11G 9
  21089204.068    21089208.035     5792961.512 9   4084528.830 9
  18008684.479    18008686.998      791526.181 9 -10661168.484 8
  19014129.034    19014132.460    -4179690.233 9 -14698414.724 9
  20266391.862    20266393.617    -6229442.233 9  -3132246.247 8
 89 11 21 10 20 59.0800000  0  4G 2G 6G11G 9
  21104563.908    21104565.830     5873674.325 9   4147421.908 9
  18000860.854    18000862.883      750413.874 9 -10693204.038 8
  18997979.991    18997983.119    -4264554.895 9 -14764543.022 7
  20249872.827    20249876.214    -6316247.184 9  -3199886.442 8
 89 11 21 10 21 29.0800000  0  4G 2G 6G11G 9
  21119925.499    21119928.685     5954402.727 8   4210327.120 9
  17993084.355    17993085.906      709548.483 9 -10725047.197 8
  18981907.624    18981909.859    -4349017.972 9 -14830358.393 8
  20233361.010    20233362.562    -6403019.902 9  -3267501.523 7
 89 11 21 10 21 59.0800000  0  4G 2G 6G11G 9
  21135290.936    21135293.702     6035145.999 9   4273243.926 8
  17985355.996    17985355.767      668931.177 9 -10756697.057 7
  18965911.373    18965915.241    -4433077.857 9 -14895859.592 8
  20216854.446    20216857.079    -6489759.554 9  -3335090.841 8
 89 11 21 10 22 29.0800000  0  4G 2G 6G11G 9
  21150658.274    21150661.882     6115903.959 9   4336172.159 9
  17977673.899    17977675.736      628564.349 9 -10788151.711 8
  18949991.772    18949996.361    -4516731.850 9 -14961044.518 8
  20200353.862    20200355.724    -6576464.118 9  -3402652.773 7
 89 11 21 10 22 59.0800000  0  4G 2G 6G11G 9
  21166028.968    21166032.472     6196676.381 9   4399111.678 8
  17970040.093    17970042.203      588450.256 9 -10819409.450 8
  18934151.092    18934156.101    -4599977.348 9 -15025911.144 8
  20183862.643    20183864.651    -6663132.147 9  -3470186.280 8
 89 11 21 10 23 29.0800000  0  4G 2G 6G11G 9
  21181401.614    21181404.796     6277462.839 9   4462062.137 9
  17962455.412    17962456.968      548590.732 9 -10850468.811 8
  18918387.815    18918392.343    -4682811.905 9 -15090457.524 9
  20167376.533    20167379.248    -6749762.254 8  -3537690.234 8
 89 11 21 10 23 59.0800000  0  4G 2G 6G11G 9
  21196778.132    21196781.841     6358263.434 7   4525023.592 8
  17954919.119    17954921.200      508988.201 9 -10881327.902 8
  18902704.089    18902706.985    -4765232.950 9 -15154681.703 8
  20150899.397    20150901.887    -6836352.467 9  -3605163.085 8
 89 11 21 10 24 29.0800000  0  4G 2G 6G11G 9
  21212156.561    21212157.857     6439077.207 7   4587995.304 8
  17947431.861    17947434.013      469644.429 9 -10911985.391 9
  18887098.461    18887102.147    -4847238.641 9 -15218582.219 8
  20134429.301    20134432.684    -6922901.470 8  -3672603.832 9
 89 11 21 10 24 59.0800000  0  4G 2G 6G11G 9
  21227535.559    21227540.720     6519903.688 7   4650976.916 8
  17939994.531    17939997.783      430561.358 9 -10942439.749 9
  18871572.801    18871576.208    -4928826.660 9 -15282157.292 8
  20117966.935    20117970.564    -7009408.027 8  -3740011.498 8
 89 11 21 10 25 29.0800000  0  4G 2G 6G11G 9
  21242920.329    21242923.208     6600742.880 8   4713968.430 8
  17932608.146    17932609.579      391741.168 9 -10972689.240 7
  18856127.356    18856131.208    -5009994.344 9 -15345404.815 8
  20101514.443    20101516.758    -7095870.348 8  -3807384.698 8
 89 11 21 10 25 59.0800000  0  4G 2G 6G11G 9
  21258305.449    21258309.845     6681594.856 8   4776969.923 8
  17925270.355    17925272.985      353186.469 9 -11002731.868 8
  18840761.977    18840765.703    -5090739.014 9 -15408322.745 9
  20085070.700    20085073.919    -7182286.202 9  -3874721.706 8
 89 11 21 10 26 29.0800000  0  4G 2G 6G11G 9
  21273692.626    21273695.578     6762458.326 8   4839980.388 8
  17917984.544    17917986.596      314897.983 9 -11032567.041 8
  18825477.314    18825481.483    -5171059.665 9 -15470910.246 8
  20068635.387    20068636.743    -7268655.160 9  -3942022.158 8
 89 11 21 10 26 59.0800000  0  4G 2G 6G11G 9
  21289083.340    21289087.189     6843332.826 9   4902999.446 7
  17910750.686    17910751.258      276878.139 9 -11062192.875 9
  18810274.668    18810277.907    -5250954.011 9 -15533165.569 8
  20052207.591    20052211.483    -7354975.419 8  -4009284.679 9
 89 11 21 10 27 29.0800000  0  4G 2G 6G11G 9
  21304475.104    21304478.809     6924218.271 9   4966027.037 7
  17903566.336    17903569.019      239129.124 9 -11091607.682 9
  18795153.103    18795156.525    -5330419.496 9 -15595086.724 9
  20035792.593    20035794.087    -7441245.367 9  -4076507.991 8
 89 11 21 10 27 59.0800000  0  4G 2G 6G11G 9
  21319870.159    21319873.186     7005114.082 9   5029062.706 7
  17896435.235    17896436.289      201652.832 9 -11120809.975 9
  18780113.440    18780116.065    -5409454.016 9 -15656672.048 8
  20019386.030    20019387.957    -7527463.596 9  -4143691.029 8
 89 11 21 10 28 29.0800000  0  4G 2G 6G11G 9
  21335265.856    21335268.505     7086019.972 9   5092106.234 8
  17889356.263    17889357.372      164451.763 9 -11149797.822 8
  18765155.567    18765159.632    -5488054.689 9 -15717919.317 8
  20002988.922    20002991.121    -7613627.880 9  -4210832.020 8
 89 11 21 10 28 59.0800000  0  4G 2G 6G11G 9
  21350662.915    21350666.492     7166936.121 9   5155157.749 8
  17882329.655    17882330.961      127527.787 9 -11178569.768 8
  18750280.439    18750284.830    -5566220.014 9 -15778827.347 8
  19986602.736    19986605.430    -7699736.750 8  -4277929.882 8
 89 11 21 10 29 29.0800000  0  4G 2G 6G11G 9
  21366063.265    21366066.452     7247862.388 9   5218217.129 9
  17875356.237    17875357.569       90883.420 8 -11207123.808 9
  18735489.757    18735494.011    -5643947.088 9 -15839393.876 8
  19970228.256    19970230.024    -7785788.161 9  -4344982.938 9
 89 11 21 10 29 59.0800000  0  4G 2G 6G11G 9
  21381464.122    21381467.713     7328796.854 9   5281282.902 8
  17868435.060    17868437.696       54518.839 9 -11235459.834 8
  18720782.563    18720785.745    -5721235.853 9 -15899618.867 8
  19953863.664    19953865.802    -7871782.104 9  -4411991.221 8
 89 11 21 10 30 29.0800000  0  4G 2G 6G11G 9
  21396867.465    21396872.084     7409739.893 9   5344355.375 9
  17861570.159    17861572.266       18437.289 9 -11263575.333 8
  18706158.821    18706162.266    -5798083.108 9 -15959499.815 8
  19937511.778    19937513.076    -7957716.128 9  -4478952.776 8
 89 11 21 10 30 59.0800000  0  4G 2G 6G11G 9
  21412272.396    21412275.249     7490691.270 9   5407434.337 9
  17854759.035    17854760.915      -17359.320 9 -11291468.768 8
  18691619.873    18691623.599    -5874486.390 9 -16019034.813 8
  19921170.598    19921171.303    -8043588.254 9  -4545866.124 8
 89 11 21 10 31 29.0800000  0  4G 2G 6G11G 9
  21427678.867    21427682.482     7571651.487 9   5470520.190 8
  17848000.515    17848001.976      -52868.106 9 -11319137.925 7
  18677166.560    18677168.794    -5950443.150 9 -16078221.867 8
  19904842.152    19904843.198    -8129396.354 9  -4612729.560 7
 89 11 21 10 31 59.0800000  0  4G 2G 6G11G 9
  21443086.325    21443089.926     7652620.688 9   5533613.041 9
  17841300.344    17841302.215      -88086.923 9 -11346581.163 8
  18662797.462    18662800.356    -6025951.257 9 -16137059.350 8
  19888525.984    19888527.617    -8215138.447 9  -4679541.556 8
 89 11 21 10 32 29.0800000  0  4G 2G 6G11G 9
  21458496.346    21458499.389     7733597.111 9   5596711.508 9
  17834652.887    17834654.331     -123014.866 9 -11373797.744 9
  18648513.734    18648517.385    -6101009.593 9 -16195546.351 8
  19872222.079    19872223.184    -8300814.055 9  -4746301.746 8
 89 11 21 10 32 59.0800000  0  4G 2G 6G11G 9
  21473906.551    21473909.740     7814580.383 9   5659815.324 9
  17828061.363    17828063.654     -157650.562 9 -11400786.595 8
  18634316.856    18634318.757    -6175616.914 9 -16253681.920 7
  19855930.740    19855933.947    -8386422.323 9  -4813009.525 7
 89 11 21 10 33 29.0800000  0  4G 2G 6G11G 9
  21489317.999    21489321.795     7895566.930 9   5722921.685 9
  17821526.112    17821527.573     -191994.487 9 -11427548.095 8
  18620204.964    18620207.981    -6249773.578 9 -16311466.311 8
  19839652.936    19839655.286    -8471963.851 9  -4879665.279 8
 89 11 21 10 33 59.0800000  0  4G 2G 6G11G 9
  21504730.191    21504733.482     7976559.349 9   5786032.610 9
  17815046.546    17815049.998     -226041.614 9 -11454078.332 8
  18606180.465    18606183.209    -6323474.737 9 -16368895.770 8
  19823388.780    19823390.680    -8557433.872 9  -4946265.293 7
 89 11 21 10 34 29.0800000  0  4G 2G 6G11G 9
  21520145.034    21520147.235     8057557.931 7   5849148.326 9
  17808624.929    17808627.054     -259789.521 9 -11480375.403 9
  18592242.485    18592246.255    -6396718.217 9 -16425968.603 8
  19807137.901    19807138.585    -8642830.429 9  -5012808.043 7
 89 11 21 10 34 59.0800000  0  4G 2G 6G11G 9
  21535558.153    21535561.401     8138562.222 8   5912268.486 9
  17802260.389    17802262.073     -293235.939 9 -11506437.542 7
  18578392.673    18578395.484    -6469501.870 9 -16482683.105 8
  19790901.991    19790904.423    -8728151.611 9  -5079292.065 9
 89 11 21 10 35 29.0800000  0  4G 2G 6G11G 9
  21550974.099    21550977.083     8219572.656 8   5975393.441 9
  17795953.583    17795955.042     -326378.552 8 -11532262.941 8
  18564629.867    18564633.093    -6541823.679 9 -16539037.756 8
  19774680.386    19774681.931    -8813395.229 8  -5145715.642 7
 89 11 21 10 35 59.0800000  0  4G 2G 6G11G 9
  21566391.944    21566395.121     8300591.177 6   6038524.701 9
  17789704.435    17789708.299     -359213.022 9 -11557848.245 8
  18550956.123    18550959.797    -6613679.153 9 -16595029.026 8
  19758474.310    19758477.186    -8898557.132 9  -5212075.562 7
 89 11 21 10 36 29.0800000  0  4G 2G 6G11G 9
  21581811.964    21581813.008     8381616.017 6   6101660.837 9
  17783515.798    17783518.046     -391738.869 9 -11583193.049 8
  18537371.578    18537376.252    -6685067.926 9 -16650656.628 8
  19742283.666    19742286.381    -8983637.251 9  -5278371.728 7
 89 11 21 10 36 59.0800000  0  4G 2G 6G11G 9
  21597228.516    21597233.514     8462645.590 6   6164800.666 8
  17777385.185    17777388.303     -423954.962 9 -11608296.504 8
  18523875.726    18523878.781    -6755989.109 9 -16705919.870 8
  19726109.902    19726112.636    -9068634.850 9  -5344603.604 8
 89 11 21 10 37 29.0800000  0  4G 2G 6G11G 9
  21612648.440    21612654.590     8543679.338 7   6227943.795 8
  17771313.581    17771316.902     -455859.924 9 -11633157.523 8
  18510468.396    18510472.375    -6826441.567 9 -16760817.877 8
  19709952.121    19709953.446    -9153548.705 9  -5410770.244 9
 89 11 21 10 37 59.0800000  0  4G 2G 6G11G 9
  21628070.232    21628074.000     8624716.941 8   6291089.930 8
  17765302.406    17765305.154     -487451.879 9 -11657774.617 8
  18497150.831    18497155.613    -6896423.410 9 -16815349.167 8
  19693809.715    19693811.346    -9238377.167 9  -5476870.346 8
 89 11 21 10 38 29.0800000  0  4G 2G 6G11G 9
  21643492.766    21643495.437     8705757.356 7   6354238.268 8
  17759351.058    17759352.424     -518728.561 9 -11682146.062 8
  18483924.540    18483928.225    -6965932.936 9 -16869512.418 8
  19677683.763    19677686.422    -9323118.240 9  -5542902.346 7
 89 11 21 10 38 59.0800000  0  4G 2G 6G11G 9
  21658913.961    21658918.716     8786801.432 8   6417389.453 8
  17753459.283    17753460.999     -549687.950 9 -11706270.251 8
  18470787.763    18470790.749    -7034967.950 9 -16923305.937 8
  19661575.234    19661577.806    -9407769.762 8  -5608864.546 8
 89 11 21 10 39 29.0800000  0  4G 2G 6G11G 9
  21674336.763    21674340.640     8867849.027 9   6480543.399 7
  17747628.727    17747630.855     -580327.692 8 -11730145.367 8
  18457740.910    18457744.309    -7103526.650 9 -16976728.294 8
  19645483.536    19645486.027    -9492330.125 9  -5674755.700 8
 89 11 21 10 39 59.0800000  0  4G 2G 6G11G 9
  21689759.934    21689763.810     8948899.304 9   6543699.435 7
  17741859.739    17741861.799     -610645.717 9 -11753769.809 8
  18444784.777    18444789.576    -7171607.567 9 -17029778.356 8
  19629410.510    19629410.959    -9576797.248 9  -5740574.274 8
 89 11 21 10 40 29.0800000  0  4G 2G 6G11G 9
  21705184.786    21705187.207     9029952.669 9   6606857.902 6
  17736151.844    17736153.907     -640639.885 9 -11777141.880 8
  18431921.139    18431924.751    -7239208.593 9 -17082454.457 8
  19613354.505    19613356.535    -9661169.073 9  -5806318.603 8
 89 11 21 10 40 59.0800000  0  4G 2G 6G11G 9
  21720609.201    21720611.319     9111008.588 9   6670018.356 6
  17730505.389    17730508.728     -670308.349 9 -11800260.173 8
  18419149.248    18419153.687    -7306327.963 9 -17134755.261 8
  19597317.030    19597320.019    -9745444.041 9  -5871987.423 8
 89 11 21 10 41 29.0800000  0  4G 2G 6G11G 9
  21736034.111    21736038.118     9192066.273 9   6733180.193 6
  17724922.581    17724925.369     -699649.583 8 -11823123.464 8
  18406468.605    18406472.233    -7372964.809 9 -17186680.052 8
  19581299.514    19581302.467    -9829620.692 9  -5937579.631 8
 89 11 21 10 41 59.0800000  0  4G 2G 6G11G 9
  21751459.560    21751460.395     9273126.375 9   6796343.938 6
  17719400.849    17719404.420     -728660.702 9 -11845729.518 9
  18393880.565    18393883.590    -7439116.485 9 -17238226.796 8
  19565300.999    19565303.078    -9913696.262 9  -6003093.062 9
 89 11 21 10 42 29.0800000  0  4G 2G 6G11G 9
  21766884.692    21766888.574     9354188.682 9   6859509.364 7
  17713944.590    17713947.007     -757339.861 8 -11868076.916 8
  18381385.187    18381388.269    -7504781.350 9 -17289394.212 8
  19549320.191    19549322.152    -9997668.996 9  -6068526.381 7
 89 11 21 10 42 59.0800000  0  4G 2G 6G11G 9
  21782310.910    21782313.528     9435252.348 9   6922675.846 8
  17708549.420    17708552.869     -785685.015 9 -11890164.044 8
  18368981.849    18368986.096    -7569957.859 9 -17340181.098 8
  19533361.648    19533363.197   -10081537.160 9  -6133878.196 8
 89 11 21 10 43 29.0800000  0  4G 2G 6G11G 9
  21797737.892    21797740.303     9516317.431 9   6985843.421 7
  17703221.107    17703222.886     -813693.906 8 -11911989.154 8
  18356672.450    18356675.718    -7634644.278 9 -17390586.072 8
  19517422.032    19517423.771   -10165298.558 9  -6199146.837 8
